Regional Weather Roundup
Issued by NWS

Home | Current Version | Previous Version | Graphics & Text | Print | Product List | Glossary On
Versions: 1 2 3 4 5 6 7 8 9 10 11 12 13 14 15 16 17 18 19 20 21 22 23 24 25 26 27 28 29 30 31 32 33 34 35 36 37 38 39 40 41 42 43 44 45 46 47 48 49 50
000
ASUS43 KBIS 012010
RWRND

NORTH DAKOTA REGIONAL WEATHER ROUNDUP
NATIONAL WEATHER SERVICE BISMARCK ND
200 PM CST SUN FEB 01 2015

NOTE: "FAIR" INDICATES FEW OR NO CLOUDS BELOW 12,000 FEET WITH NO
SIGNIFICANT WEATHER AND/OR OBSTRUCTIONS TO VISIBILITY.


NDZ001>003-009>011-017-012100-
NORTHWEST NORTH DAKOTA

CITY           SKY/WX    TMP DP  RH WIND       PRES   REMARKS
WILLISTON      SUNNY      3  -5  69 SW12      30.37F WCI -13
MINOT          SUNNY      2 -13  49 VRB5      30.38F WCI  -8
MINOT AFB      SUNNY      3  -9  55 SW6       30.38F WCI  -8
$$

NDZ018>021-031>035-040>046-012100-
SOUTHWEST NORTH DAKOTA

CITY           SKY/WX    TMP DP  RH WIND       PRES   REMARKS
BISMARCK       SUNNY      3 -13  47 VRB5      30.44F WCI  -6
DICKINSON      SUNNY      2  -8  63 W7        30.31F WCI -11
GARRISON         N/A      0 -13  54 SW7       30.38F WCI -13
HETTINGER ARPT SUNNY      4  -3  73 NW9       30.33F WCI -10
$$

NDZ004>008-012>016-024-026-027-054-012100-
NORTHEAST NORTH DAKOTA

CITY           SKY/WX    TMP DP  RH WIND       PRES   REMARKS
GRAND FORKS    SUNNY      0 -13  54 N12       30.50F WCI -17
GRND FRKS AFB  SUNNY      0 -16  46 N6        30.49F WCI -11
DEVILS LAKE    SUNNY     -2 -17  50 W7        30.42F WCI -16
$$

NDZ022-023-025-028>030-036>039-047>053-012100-
SOUTHEAST NORTH DAKOTA

CITY           SKY/WX    TMP DP  RH WIND       PRES   REMARKS
FARGO          SUNNY      5 -12  45 N15       30.46F WCI -13
JAMESTOWN      SUNNY      2 -14  47 NW10      30.42F WCI -14
$$



USA.gov is the U.S. government's official web portal to all federal, state and local government web resources and services.